Regional Weather Roundup
Issued by NWS

Home | Current Version | Previous Version | Graphics & Text | Print | Product List | Glossary On
Versions: 1 2 3 4 5 6 7 8 9 10 11 12 13 14 15 16 17 18 19 20 21 22 23 24 25 26 27 28 29 30 31 32 33 34 35 36 37 38 39 40 41 42 43 44 45 46 47 48 49 50
000
ASUS45 KBOI 202010
RWRID
WEATHER ROUNDUP FOR IDAHO
NATIONAL WEATHER SERVICE BOISE ID
200 PM MDT WED AUG 20 2014

NOTE: "FAIR" INDICATES FEW OR NO CLOUDS BELOW 12000 FEET
WITH NO SIGNIFICANT WEATHER AND/OR OBSTRUCTIONS TO VISIBILITY

IDZ012-014-202100-
SOUTHWEST IDAHO


CITY           SKY/WX    TMP DP  RH WIND       PRES   REMARKS
BOISE          PTSUNNY   79  48  33 NW5       29.87F
CALDWELL       PTSUNNY   81  50  34 N5        29.87F
MOUNTAIN HOME  PTSUNNY   81  47  30 NE3       29.86F
$$

IDZ016-017-202100-
SOUTHCENTRAL IDAHO


CITY           SKY/WX    TMP DP  RH WIND       PRES   REMARKS
BURLEY         MOSUNNY   82  46  28 N6        29.89F
JEROME         CLOUDY    76  49  38 SW5       29.91F
TWIN FALLS     PTSUNNY   80  55  42 NW10      29.91S
$$

IDZ019>023-202100-
SOUTHEAST IDAHO


CITY           SKY/WX    TMP DP  RH WIND       PRES   REMARKS
IDAHO FALLS    MOSUNNY   77  50  38 SW10      29.95F
POCATELLO      MOSUNNY   81  49  32 SW12      29.93F
REXBURG        MOSUNNY   73  51  46 SW10      29.95F
$$

IDZ006-010-011-018-031-032-202100-
CENTRAL IDAHO MOUNTAINS


CITY           SKY/WX    TMP DP  RH WIND       PRES   REMARKS
MCCALL         CLOUDY    73  41  31 S12       29.94S
HAILEY         PTSUNNY   72  52  49 SE9       29.99F
STANLEY          N/A     60  50  69 CALM      30.03S
SALMON         CLOUDY    64  46  52 N9        29.89F
CHALLIS        LGT RAIN  63  52  67 N8        29.96S
$$

IDZ002-004-006-007-026-202100-
NORTHERN IDAHO


CITY           SKY/WX    TMP DP  RH WIND       PRES   REMARKS
LEWISTON       CLOUDY    80  55  42 NE9       29.81F
LOWELL           N/A     75  61  61 CALM      29.82F
COEUR D`ALENE  CLOUDY    73  54  49 S14G20    29.83F
MULLAN PASS    CLOUDY    56  50  80 VRB3      30.00R
$$



USA.gov is the U.S. government's official web portal to all federal, state and local government web resources and services.